Location: Rocktram
(38.2574°N, 122.2805°W)
Time: 01:25:12
(UTC+00:00)

H-2A R/B - Pass Details

Date: 30 March 2020
Orbit: 734 x 836 km, 98.2° (Epoch: 27 May)

Event Time Altitude Azimuth Distance (km) Brightness Sun altitude
Rises 03:19:33 0° 153° (SSE) 3,348 4.9 -10.4°
Reaches altitude 10° 03:21:58 10° 149° (SSE) 2,408 4.2 -10.8°
Maximum altitude 03:27:08 54° 73° (ENE) 978 2.2 -11.8°
Drops below altitude 10° 03:32:13 10° 357° (N) 2,363 4.8 -12.8°
Sets 03:34:34 0° 353° (N) 3,280 5.6 -13.2°
